[[{"header":{"parameterUnit":"m.s-1","parameterCategory":1,"la1":30.2991,"la2":30.254,"lo1":-89.0895,"lo2":-89.0444,"dy":0.0017,"dx":0.0017,"nx":28,"ny":28,"refTime":"2025-11-19T09:00:00:Z","depth":0,"parameterNumber":2,"parameterNumberName":"U-component_of_WINDS"},"data":[0,0,0,0,0,0,0,0,0,0,0,0,0,0,0,0,0,0,0,0,0,0,0,0,0,0,0,0,0,0,0,0,0,0,0,0,0,0,0,0,0,0,0,0,0,0,0,0,0,0,0,0,0,0,0,0,0,0,-0.4401,-0.44,0,-0.4377,-0.4376,-0.4376,-0.4358,-0.4358,-0.4358,-0.4357,-0.4332,-0.4332,-0.4331,0,0,0,0,0,0,0,0,0,0,0,0,0,-0.4429,-0.4429,-0.4401,-0.44,-0.44,-0.4377,-0.4376,-0.4376,-0.4358,-0.4358,-0.4357,-0.4357,-0.4332,-0.4332,-0.4331,0,0,0,0,0,0,0,0,0,0,0,0,0,-0.4412,-0.4429,-0.4401,-0.4388,-0.4387,-0.4377,-0.4376,-0.4376,-0.4358,-0.4358,-0.4357,-0.4357,-0.4333,-0.4332,-0.4331,-0.4332,0,0,-0.4329,-0.4328,0,0,0,0,0,0,0,0,-0.4413,-0.4411,-0.439,-0.4389,-0.4387,-0.437,-0.4377,-0.4361,-0.4358,-0.4369,-0.4357,-0.4357,-0.4345,-0.4343,-0.4339,-0.433,-0.4329,-0.4329,-0.4328,-0.4328,-0.4328,0,0,0,0,0,0,0,-0.4415,-0.4412,-0.4391,-0.439,-0.4388,-0.4383,-0.4381,-0.4374,-0.4359,-0.4368,-0.4367,-0.4364,-0.4344,-0.434,-0.4339,-0.4329,-0.4329,-0.4328,-0.4328,-0.4327,-0.4318,-0.4318,0,0,0,0,0,0,-0.4418,-0.4413,-0.4392,-0.439,-0.44,-0.4383,-0.438,-0.4376,-0.4359,-0.4356,-0.4364,-0.4363,-0.4341,-0.4339,-0.4338,-0.4336,-0.4328,-0.4327,-0.4327,-0.4317,-0.4318,-0.4318,0,0,0,0,0,0,-0.4418,-0.4416,-0.4393,-0.4401,-0.4398,-0.4383,-0.4378,-0.4376,-0.4371,-0.4356,-0.4353,-0.4363,-0.4341,-0.4339,-0.4333,-0.4335,-0.4327,-0.4326,-0.4317,-0.4318,-0.4318,-0.4333,0,0,0,0,0,0,-0.4419,-0.4416,-0.4417,-0.4402,-0.4398,-0.4389,-0.4378,-0.4375,-0.437,-0.4369,-0.4354,-0.4351,-0.4341,-0.4334,-0.4332,-0.4334,-0.4326,-0.4317,-0.4317,-0.4318,-0.4333,-0.4334,-0.4335,0,0,0,0,0,-0.442,-0.4422,-0.4417,-0.4414,-0.4398,-0.4389,-0.4387,-0.4375,-0.4371,-0.437,-0.436,-0.4352,-0.4335,-0.4334,-0.4331,-0.4333,-0.4317,-0.4317,-0.4318,-0.4332,-0.4334,-0.4335,0,0,0,0,0,0,-0.4438,-0.442,-0.4414,-0.4411,-0.4402,-0.4386,-0.4386,-0.4378,-0.437,-0.4368,-0.4354,-0.4351,-0.4346,-0.4339,-0.4338,-0.4331,-0.4325,-0.4325,-0.4336,-0.4338,-0.4339,-0.4341,-0.4325,0,0,0,0,0,-0.4441,-0.4436,-0.4421,-0.4419,-0.4415,-0.4401,-0.4397,-0.4389,-0.4379,-0.4375,-0.4364,-0.4354,-0.4347,-0.4342,-0.4334,-0.4331,-0.4327,-0.4331,-0.4333,-0.4334,-0.4334,-0.4331,-0.4332,-0.4319,-0.4319,-0.4319,0,0,-0.4449,-0.4438,-0.4436,-0.4423,-0.4415,-0.4409,-0.4398,-0.4393,-0.4388,-0.4374,-0.4367,-0.4359,-0.4347,-0.4343,-0.434,-0.4336,-0.4336,-0.4334,-0.4336,-0.4335,-0.4331,-0.4332,-0.4333,-0.432,-0.432,-0.432,0,0,-0.4458,-0.445,-0.4448,-0.444,-0.4428,-0.4419,-0.4418,-0.4404,-0.4398,-0.4391,-0.438,-0.4374,-0.4362,-0.4353,-0.4347,-0.4353,-0.4345,-0.4351,-0.4358,-0.4356,-0.4356,-0.4357,-0.4358,-0.4359,-0.4351,-0.4351,-0.4351,0,-0.4469,-0.446,-0.4448,-0.4443,-0.4437,-0.4424,-0.4421,-0.4413,-0.4399,-0.4395,-0.4392,-0.4375,-0.4366,-0.4359,-0.436,-0.4356,-0.4354,-0.4353,-0.4357,-0.4358,-0.4359,-0.436,-0.436,-0.4352,-0.4352,-0.4352,-0.4352,0,-0.4473,-0.4467,-0.4466,-0.4453,-0.4447,-0.4444,-0.443,-0.4426,-0.4418,-0.4409,-0.4401,-0.439,-0.4379,-0.4377,-0.437,-0.4369,-0.4366,-0.436,-0.4353,-0.4361,-0.4361,-0.4362,-0.4353,-0.4353,-0.4353,-0.4352,0,0,-0.4493,-0.4473,-0.4473,-0.4466,-0.4451,-0.4446,-0.4442,-0.4431,-0.4427,-0.4418,-0.4413,-0.4402,-0.4396,-0.4389,-0.438,-0.4378,-0.4382,-0.4372,-0.4371,-0.4373,-0.4379,-0.4384,-0.4384,-0.4377,-0.4377,-0.4377,-0.438,0,-0.45,-0.4491,-0.4479,-0.4474,-0.4468,-0.4455,-0.445,-0.4441,-0.4432,-0.4425,-0.4415,-0.4407,-0.44,-0.4396,-0.4393,-0.4382,-0.4383,-0.4382,-0.4371,-0.4371,-0.4374,-0.4385,-0.439,-0.4393,-0.438,-0.438,-0.438,0,-0.4507,-0.4498,-0.4492,-0.4477,-0.4474,-0.4471,-0.446,-0.4454,-0.4442,-0.4436,-0.4428,-0.4418,-0.4412,-0.4406,-0.4396,-0.4395,-0.439,-0.4384,-0.4384,-0.4382,-0.4376,-0.4382,-0.4394,-0.4395,-0.4381,-0.4381,-0.4381,0,-0.4521,-0.4508,-0.4502,-0.4497,-0.448,-0.4477,-0.447,-0.4458,-0.4452,-0.4443,-0.4439,-0.4428,-0.4423,-0.4414,-0.4402,-0.4399,-0.4393,-0.4386,-0.4387,-0.4387,-0.4386,-0.4386,-0.4397,-0.4384,-0.4384,-0.4384,-0.4384,0,-0.4529,-0.4526,-0.4508,-0.4505,-0.45,-0.4487,-0.4483,-0.4474,-0.4464,-0.4458,-0.4446,-0.444,-0.4424,-0.4417,-0.4407,-0.44,-0.4398,-0.4392,-0.4389,-0.4392,-0.4393,-0.4388,-0.4388,-0.4384,-0.4384,-0.4384,-0.4384,0,-0.4544,-0.4532,-0.4525,-0.451,-0.4506,-0.4503,-0.4489,-0.4485,-0.4475,-0.4468,-0.4465,-0.445,-0.4441,-0.4427,-0.4414,-0.4407,-0.4401,-0.4397,-0.4405,-0.4403,-0.4405,-0.4404,-0.4412,-0.4412,-0.44,-0.44,-0.44,0,-0.455,-0.4547,-0.4531,-0.4527,-0.452,-0.4512,-0.4506,-0.4493,-0.4487,-0.4473,-0.447,-0.446,-0.4451,-0.4436,-0.4423,-0.4413,-0.4408,-0.4411,-0.4406,-0.441,-0.4407,-0.4407,-0.4406,-0.4413,-0.4413,-0.4413,-0.4413,0,-0.4562,-0.4556,-0.4548,-0.4538,-0.4531,-0.4522,-0.4513,-0.4509,-0.4494,-0.4488,-0.4478,-0.4471,-0.4457,-0.4446,-0.4434,-0.4425,-0.4416,-0.4415,-0.4414,-0.4417,-0.4422,-0.4419,-0.4408,-0.4415,-0.4414,-0.4414,-0.4414,-0.4414,-0.4572,-0.4568,-0.4556,-0.4547,-0.4539,-0.453,-0.4525,-0.4515,-0.4507,-0.4495,-0.4487,-0.4478,-0.4465,-0.4447,-0.4439,-0.4431,-0.4427,-0.4427,-0.4427,-0.4427,-0.4427,-0.4424,-0.4429,-0.4429,-0.4429,-0.4429,-0.4429,0,-0.4582,-0.4573,-0.4566,-0.4553,-0.4546,-0.4538,-0.4527,-0.4522,-0.4514,-0.4503,-0.4494,-0.4483,-0.4472,-0.4459,-0.4447,-0.4443,-0.4438,-0.444,-0.444,-0.4438,-0.4432,-0.4433,-0.4444,-0.4444,-0.4444,-0.4444,-0.4444,-0.4444,-0.4586,-0.4579,-0.4572,-0.4561,-0.4552,-0.4543,-0.4538,-0.4529,-0.4521,-0.4508,-0.45,-0.4491,-0.4479,-0.4466,-0.4456,-0.4452,-0.4448,-0.4451,-0.4446,-0.444,-0.4439,-0.4437,-0.4439,-0.4451,-0.4451,-0.4453,-0.4453,-0.4453]},{"header":{"parameterUnit":"m.s-1","parameterCategory":1,"la1":30.2991,"la2":30.254,"lo1":-89.0895,"lo2":-89.0444,"dy":0.0017,"dx":0.0017,"nx":28,"ny":28,"refTime":"2025-11-19T09:00:00:Z","depth":0,"parameterNumber":3,"parameterNumberName":"V-component_of_WINDS"},"data":[0,0,0,0,0,0,0,0,0,0,0,0,0,0,0,0,0,0,0,0,0,0,0,0,0,0,0,0,0,0,0,0,0,0,0,0,0,0,0,0,0,0,0,0,0,0,0,0,0,0,0,0,0,0,0,0,0,0,1.444,1.4441,0,1.4501,1.4502,1.4503,1.4498,1.4498,1.4497,1.4496,1.4561,1.4564,1.4566,0,0,0,0,0,0,0,0,0,0,0,0,0,1.4325,1.4327,1.444,1.4441,1.4442,1.4501,1.4502,1.4503,1.4499,1.4498,1.4496,1.4495,1.456,1.4563,1.4566,0,0,0,0,0,0,0,0,0,0,0,0,0,1.438,1.4328,1.444,1.4447,1.4448,1.4501,1.4502,1.4503,1.4499,1.4497,1.4496,1.4495,1.4559,1.4563,1.4567,1.4618,0,0,1.4579,1.458,0,0,0,0,0,0,0,0,1.4377,1.4384,1.4445,1.4446,1.4448,1.4491,1.4486,1.4542,1.4499,1.448,1.4496,1.4494,1.4539,1.4545,1.4559,1.4621,1.4624,1.4579,1.4581,1.4583,1.4584,0,0,0,0,0,0,0,1.4373,1.4381,1.4465,1.4446,1.4448,1.4448,1.4455,1.4496,1.4516,1.4481,1.4481,1.4488,1.454,1.4555,1.4561,1.4625,1.4579,1.4582,1.4585,1.4586,1.4737,1.4739,0,0,0,0,0,0,1.4367,1.4378,1.4463,1.4466,1.4408,1.4452,1.4459,1.4478,1.4516,1.452,1.4489,1.4488,1.4549,1.4556,1.4563,1.4629,1.4583,1.4587,1.4589,1.4736,1.4738,1.474,0,0,0,0,0,0,1.4365,1.4375,1.446,1.4422,1.4433,1.4455,1.4477,1.448,1.4496,1.4522,1.4526,1.4501,1.4549,1.4557,1.4605,1.4631,1.4589,1.4592,1.4734,1.4736,1.4739,1.4758,0,0,0,0,0,0,1.4361,1.4374,1.4392,1.4423,1.4435,1.45,1.4479,1.4483,1.4502,1.4501,1.4534,1.4539,1.4548,1.46,1.4609,1.4635,1.4595,1.4732,1.4735,1.4738,1.4756,1.4761,1.4766,0,0,0,0,0,1.4357,1.4395,1.4393,1.4403,1.4458,1.4501,1.4509,1.4518,1.4504,1.4524,1.4542,1.4538,1.4626,1.4605,1.4615,1.4643,1.473,1.4734,1.4738,1.4753,1.476,1.4766,0,0,0,0,0,0,1.4366,1.4399,1.4397,1.4445,1.4471,1.4501,1.4525,1.4525,1.4555,1.4552,1.4564,1.4572,1.4621,1.4636,1.4612,1.4697,1.4677,1.4683,1.4685,1.4691,1.4697,1.4693,1.4598,0,0,0,0,0,1.4374,1.4405,1.4432,1.4472,1.4485,1.4503,1.4522,1.4528,1.4555,1.4566,1.4586,1.4614,1.4648,1.467,1.4703,1.4758,1.4767,1.4782,1.4788,1.4792,1.4797,1.4831,1.484,1.4752,1.4752,1.4752,0,0,1.439,1.4412,1.443,1.4475,1.4495,1.4529,1.4512,1.4548,1.4574,1.4571,1.4618,1.4635,1.4667,1.4719,1.4743,1.4734,1.4824,1.4797,1.48,1.4803,1.4836,1.4844,1.4852,1.4755,1.4754,1.4754,0,0,1.4437,1.4455,1.4493,1.4514,1.4545,1.4557,1.4566,1.4597,1.4608,1.4655,1.4655,1.4687,1.4745,1.4769,1.4788,1.4849,1.4848,1.4859,1.4887,1.492,1.4927,1.4933,1.4957,1.4966,1.4864,1.4864,1.4864,0,1.4454,1.4503,1.4512,1.4549,1.457,1.4569,1.4609,1.4629,1.467,1.4685,1.4674,1.4749,1.477,1.483,1.4845,1.486,1.4873,1.4856,1.4925,1.4931,1.4937,1.4961,1.497,1.4866,1.4866,1.4865,1.4865,0,1.4524,1.4559,1.4585,1.4625,1.4649,1.4686,1.4703,1.4727,1.4731,1.4745,1.4796,1.4821,1.4861,1.4875,1.4879,1.4937,1.4931,1.4922,1.4902,1.4947,1.4969,1.4978,1.4868,1.4867,1.4867,1.4867,0,0,1.4578,1.4623,1.4633,1.4653,1.4688,1.4716,1.4756,1.4794,1.4816,1.4844,1.488,1.4931,1.4924,1.4946,1.4953,1.4982,1.5032,1.497,1.4971,1.4983,1.5102,1.5109,1.5119,1.5031,1.5033,1.5034,1.51,0,1.463,1.4699,1.4709,1.4771,1.4805,1.4807,1.4842,1.4869,1.4884,1.4917,1.4934,1.4971,1.4957,1.4972,1.5,1.502,1.5057,1.5015,1.5067,1.5069,1.5061,1.5131,1.5138,1.5199,1.5108,1.511,1.5111,0,1.47,1.4732,1.4797,1.4831,1.4846,1.4877,1.4915,1.4945,1.4978,1.4987,1.5014,1.5018,1.5062,1.504,1.5102,1.5074,1.5096,1.511,1.5112,1.5119,1.5094,1.5141,1.5218,1.5228,1.5124,1.5123,1.5122,0,1.4737,1.4795,1.4842,1.4859,1.4899,1.4922,1.494,1.497,1.4994,1.5028,1.5044,1.5083,1.5104,1.5135,1.5152,1.5133,1.5214,1.5192,1.5226,1.5226,1.5244,1.5243,1.5327,1.5254,1.5254,1.5254,1.5254,0,1.4796,1.4836,1.486,1.4889,1.4935,1.4948,1.4995,1.5012,1.504,1.5075,1.5078,1.5111,1.5129,1.5166,1.5179,1.5231,1.524,1.5251,1.5254,1.5252,1.5251,1.5267,1.5264,1.5257,1.5256,1.5256,1.5255,0,1.4844,1.4861,1.4913,1.4948,1.4958,1.4991,1.5022,1.5052,1.5067,1.5112,1.5123,1.5148,1.5192,1.5211,1.5264,1.5273,1.5333,1.5332,1.5322,1.5324,1.5357,1.5355,1.5457,1.5472,1.5388,1.5388,1.5389,0,1.4881,1.4913,1.4951,1.4974,1.4993,1.503,1.5055,1.507,1.5096,1.5137,1.5163,1.5206,1.5242,1.5312,1.5337,1.5378,1.538,1.5413,1.5386,1.5384,1.5384,1.5383,1.5388,1.5418,1.5419,1.542,1.542,0,1.4947,1.4954,1.4989,1.5028,1.5058,1.5089,1.512,1.5139,1.516,1.5189,1.5233,1.5261,1.5317,1.5361,1.5405,1.5426,1.5428,1.5429,1.5439,1.5438,1.5432,1.5439,1.5338,1.5426,1.5426,1.5425,1.5425,1.5425,1.4993,1.5022,1.5054,1.5094,1.5119,1.5149,1.518,1.52,1.5237,1.5283,1.529,1.5338,1.5374,1.5433,1.5456,1.5496,1.5488,1.5502,1.5506,1.551,1.5514,1.5424,1.5503,1.5503,1.5503,1.5503,1.5503,0,1.5061,1.5082,1.5118,1.5162,1.5195,1.5192,1.5228,1.5255,1.5298,1.533,1.5365,1.5418,1.5462,1.5491,1.5536,1.5563,1.5565,1.5574,1.5574,1.5579,1.5516,1.5504,1.5572,1.5572,1.5572,1.5572,1.5572,1.5572,1.51,1.515,1.5162,1.5227,1.5249,1.5295,1.5316,1.5345,1.5371,1.543,1.5466,1.5484,1.5517,1.5565,1.5606,1.5614,1.5631,1.5641,1.5649,1.559,1.5583,1.5576,1.5565,1.5644,1.5644,1.5709,1.5709,1.571]}]]